303  
ASUS41 KBOX 260710  
RWRBOX  
 
REGIONAL WEATHER ROUNDUP  
NATIONAL WEATHER SERVICE TAUNTON MA  
300 AM EDT FRI MAY 26 2017  
 
NOTE: "FAIR" INDICATES FEW OR NO CLOUDS BELOW 12,000 FEET WITH NO  
SIGNIFICANT WEATHER AND/OR S TO VISIBILITY
.  
 
MAZALL-260800-  
EASTERN MASSACHUSETTS  
 
CITY SKY/WX TMP DP RH WIND PRES REMARKS
 
BOSTON DRIZZLE 50 49 96 N7 29.56R FOG  
BEVERLY LGT RAIN 50 49 96 N12 29.54S  
LAWRENCE RAIN 50 48 93 N9 29.57F FOG  
BEDFORD RAIN 49 46 90 N9 29.53F  
BLUE HILL N/A 48 47 96 N18G24 29.49F  
NORWOOD RAIN 51 49 92 N9 29.52F FOG  
MARSHFIELD RAIN 52 52 100 VRB6 29.51F  
PLYMOUTH RAIN 52 51 97 N7 29.49F  
TAUNTON LGT RAIN 51 50 96 VRB6 29.48F  
NEW BEDFORD LGT RAIN 52 52 100 VRB6 29.47F  

 
 
MAZALL-260800-  
CAPE COD AND THE ISLANDS  
 
CITY SKY/WX TMP DP RH WIND PRES REMARKS
 
FALMOUTH N/A N/A N/A N/A MISG N/A  
HYANNIS RAIN 59 58 96 VRB5 29.46F FOG  
CHATHAM RAIN 58 58 100 CALM 29.49F FOG  
PROVINCETOWN LGT RAIN 57 56 96 SW7 29.50F  
NANTUCKET CLOUDY N/A N/A N/A SE7 29.48F FOG  
MARTHAS VNYRD CLOUDY 58 57 97 S8 29.47S FOG  

 
 
MAZALL-260800-  
CENTRAL AND WESTERN MASSACHUSETTS  
 
CITY SKY/WX TMP DP RH WIND PRES REMARKS
 
WORCESTER LGT RAIN 46 44 93 NE15G25 29.49F  
FITCHBURG LGT RAIN 50 48 93 VRB6G16 29.56F  
ORANGE RAIN 49 48 97 N8G16 29.52F  
SPRINGFIELD DRIZZLE 50 48 93 N7 29.47F  
WESTFIELD LGT RAIN 50 50 100 N10 29.49F  
NORTH ADAMS LGT RAIN 52 47 83 VRB5G18 29.51F  
PITTSFIELD LGT RAIN 48 46 93 NE7 29.50F  

 
 
RIZALL-260800-  
RHODE ISLAND  
 
CITY SKY/WX TMP DP RH WIND PRES REMARKS
 
PROVIDENCE LGT RAIN 51 51 100 N16G22 29.48F  
NEWPORT CLOUDY 53 53 100 VRB5 29.47R  
BLOCK ISLAND HVY RAIN 53 52 96 NE7 29.50S FOG  
SMITHFIELD LGT RAIN 49 48 97 N13 29.49F  
WESTERLY HVY RAIN 54 53 97 CALM 29.49R FOG  

 
 
CTZALL-260800-  
CONNECTICUT  
 
CITY SKY/WX TMP DP RH WIND PRES REMARKS
 
BRADLEY INTL LGT RAIN 50 49 96 N12 29.50F  
HARTFORD LGT RAIN 52 50 93 N10 29.49F  
BRIDGEPORT HVY RAIN 55 52 89 NE9 29.47R FOG  
DANBURY HVY RAIN 52 52 100 NE6 29.49S FOG  
GROTON LGT RAIN 54 52 93 SE3 29.48R  
NEW HAVEN RAIN 52 50 93 N16 29.46S  
CHESTER RAIN 52 52 100 N6 29.48R  
MERIDEN LGT RAIN 51 49 92 N7 29.49S  
WILLIMANTIC LGT RAIN 53 50 89 N10 29.49F  
OXFORD N/A 50 46 87 NE12G18 29.49F  

 
 
MEZ002-015-021-024-NHZ003-005-008-011-012-014-VTZ005-008-260800-  
NORTHERN NEW ENGLAND  
 
CITY SKY/WX TMP DP RH WIND PRES REMARKS
 
PORTLAND ME LGT RAIN 49 47 93 E15G30 29.61F FOG  
BANGOR ME LGT RAIN 48 47 96 NE12 29.75F FOG  
CONCORD NH RAIN 49 47 93 N6 29.60F FOG  
MANCHESTER NH RAIN 50 46 86 W6 29.60R FOG  
NASHUA NH RAIN 49 49 100 N10 29.58F  
PORTSMOUTH NH LGT RAIN 48 47 95 NE21G28 29.55F FOG  
JAFFREY NH HVY RAIN 48 48 100 N8 29.57F FOG  
KEENE NH HVY RAIN 49 49 100 N6 29.58F  
BURLINGTON VT CLOUDY 56 52 86 N6 29.58F  
MT. WASHINGTON LGT RAIN 34 34 100 E22 N/A VSB 1/16WCI 22  

 
 
NYZ052-076-260800-  
EASTERN NEW YORK  
 
CITY SKY/WX TMP DP RH WIND PRES REMARKS
 
ALBANY LGT RAIN 53 50 89 N8 29.53F  
NEW YORK CITY LGT RAIN 58 55 90 N6 29.45S  

 
 
ANZALL-260800-  
MARINE OBSERVATIONS  
 
STATION/POSITION TIME TEMP WIND PRES VSBY WAVE
 
AIR SEA DIR/SP/G HT/PER  
(UTC) (F) (DEG/KT/KT) (MB) (MI) (FT/S)  
BOSTON BUOY 0550 51 53 10/ 14/ 17 998.4 6/ 7  
BUZZARDS BAY 0600 55 20/ 13/ 13 998.5F  
NANTUCKET SOUND 0650 53 997.8F 2/ 3  
MASS BAY-STELLWA 0604 50 52 360/ 17/ 21 998.5F 6/ 8  
ISLE OF SHOALS 0600 48 40/ 8/ 17 1002.7R  
S OF BLOCK IS 0655 53 N/A 6/ 9  

 
   
.....................KEY......................
 
 
SKY/WX - SKY CONDITION/PRESENT WEATHER  
TMP - TEMPERATURE IN FAHRENHEIT  
DWPT - DEWPOINT IN FAHRENHEIT  
RH - RELATIVE HUMIDITY IN PERCENT  
WIND - DIRECTION AND SPEED IN MPH  
PRES - MEAN SEA LEVEL PRESSURE IN INCHES OF HG  
WCI - WIND CHILL INDEX  
VSB - VISIBILITY IN MILES  
HX - HEAT INDEX  
TC - TEMPERATURE IN CELSIUS  
VRB - VARIABLE WIND DIRECTION  
N/A - NOT AVAILABLE  
 
 
CLICK HERE TO GO TO PREVIOUS BULLETINS.

The Nexlab MA Page
The Nexlab RI Page
The Nexlab NH Page
The Nexlab CT Page Main Text Page